contact:dominique.lefevre@mio.osupytheas.fr, maurice.libes@osupytheas.fr, didier.mallarino@osupytheas.fr
Project:EMSO http://www.emso-fr.org/EMSO-France
Depth: 2436.0 m
Title:EMSO Ligure Ouest : Data MII capteur AQUADOPP
Date,Latitude,Longitude,X_East,Y_North,Z_Up,Amplitude_X,Amplitude_Y,Amplitude_Z,Batterie,SoundSpeed,Heading,Pitch,Roll,Pressure,TIS,Speed,Direction
, degrees North, degrees East, m.s-1, m.s-1,m.s-1, 1, 1, 1, Volt, m.s-1, degree, degree, degree, dbar, degree_C, m.s-1, degree
2021-12-29T00:04:03,42.805,6.029,0.008,-0.007,-0.01,100.0,101.0,99.0,13.4,1505.2,324.7,-0.8,1.8,2470.625,13.28,0.01,131.2
2021-12-29T00:07:03,42.805,6.029,-0.005,-0.004,-0.002,100.0,100.0,99.0,13.3,1505.2,328.7,-0.8,1.8,2470.641,13.28,0.006,231.3
2021-12-29T00:10:03,42.805,6.029,0.008,-0.002,0.0,100.0,98.0,100.0,13.3,1505.2,326.7,-0.7,1.8,2470.637,13.28,0.008,104.0
2021-12-29T00:13:03,42.805,6.029,0.0,-0.019,-0.001,99.0,101.0,99.0,13.3,1505.2,331.6,-0.8,1.8,2470.646,13.28,0.019,180.0
2021-12-29T00:16:03,42.805,6.029,0.026,-0.022,-0.004,100.0,100.0,100.0,13.4,1505.2,328.7,-0.8,1.8,2470.688,13.28,0.034,130.2
2021-12-29T00:19:03,42.805,6.029,-0.011,-0.004,-0.016,99.0,100.0,100.0,13.4,1505.2,324.5,-0.7,1.8,2470.694,13.28,0.011,250.0
2021-12-29T00:22:03,42.805,6.029,0.0,-0.006,-0.009,100.0,100.0,100.0,13.4,1505.2,326.7,-0.7,1.8,2470.672,13.28,0.006,180.0
2021-12-29T00:25:03,42.805,6.029,0.0,-0.006,-0.024,101.0,100.0,99.0,13.4,1505.2,326.1,-0.7,1.8,2470.677,13.28,0.006,180.0
2021-12-29T00:28:03,42.805,6.029,0.015,-0.016,-0.022,99.0,100.0,100.0,13.4,1505.2,329.1,-0.8,1.8,2470.707,13.28,0.021,136.9
2021-12-29T00:31:03,42.805,6.029,0.011,-0.006,-0.008,99.0,98.0,100.0,13.4,1505.2,326.7,-0.7,1.8,2470.712,13.28,0.012,118.6
2021-12-29T00:34:03,42.805,6.029,0.009,-0.005,-0.019,101.0,100.0,100.0,13.3,1505.2,328.3,-0.8,1.8,2470.678,13.28,0.01,119.1
2021-12-29T00:37:03,42.805,6.029,-0.011,-0.008,-0.025,100.0,99.0,99.0,13.3,1505.2,328.9,-0.7,1.8,2470.693,13.28,0.013,234.0
2021-12-29T00:40:03,42.805,6.029,0.0,-0.005,-0.02,100.0,100.0,100.0,13.4,1505.2,331.4,-0.7,1.8,2470.69,13.28,0.005,180.0
2021-12-29T00:43:03,42.805,6.029,0.01,-0.025,-0.021,100.0,100.0,100.0,13.3,1505.2,327.5,-0.8,1.8,2470.716,13.28,0.026,158.2
2021-12-29T00:46:03,42.805,6.029,0.001,0.02,-0.014,101.0,99.0,100.0,13.4,1505.2,330.5,-0.8,1.8,2470.713,13.28,0.02,2.9
2021-12-29T00:49:03,42.805,6.029,-0.006,-0.016,-0.025,99.0,101.0,100.0,13.3,1505.2,324.2,-0.8,1.8,2470.662,13.28,0.017,200.6
2021-12-29T00:52:03,42.805,6.029,0.005,-0.011,-0.009,100.0,101.0,99.0,13.3,1505.2,328.1,-0.8,1.8,2470.659,13.28,0.012,155.6
2021-12-29T00:55:03,42.805,6.029,0.004,-0.021,-0.014,99.0,103.0,99.0,13.4,1505.2,328.2,-0.8,1.8,2470.704,13.28,0.021,169.2
2021-12-29T00:58:03,42.805,6.029,0.012,-0.002,0.022,100.0,100.0,101.0,13.4,1505.2,328.7,-0.7,1.8,2470.649,13.28,0.012,99.5
2021-12-29T01:04:03,42.805,6.029,0.025,-0.012,-0.001,102.0,102.0,101.0,13.4,1505.2,325.3,-0.7,1.8,2470.668,13.28,0.027,115.6
2021-12-29T01:07:03,42.805,6.029,0.039,0.011,0.014,101.0,101.0,100.0,13.3,1505.2,329.4,-0.8,1.8,2470.66,13.28,0.04,74.3
2021-12-29T01:10:03,42.805,6.029,0.023,-0.016,-0.026,99.0,101.0,100.0,13.3,1505.2,325.0,-0.8,1.8,2470.634,13.28,0.028,124.8
2021-12-29T01:13:03,42.805,6.029,0.008,-0.017,-0.031,100.0,101.0,100.0,13.4,1505.2,326.7,-0.7,1.8,2470.645,13.28,0.018,154.8
2021-12-29T01:16:03,42.805,6.029,0.006,-0.012,0.009,101.0,100.0,101.0,13.3,1505.2,326.8,-0.8,1.8,2470.627,13.28,0.013,153.4
2021-12-29T01:19:03,42.805,6.029,-0.003,-0.015,-0.032,100.0,100.0,100.0,13.4,1505.2,325.3,-0.8,1.8,2470.623,13.28,0.015,191.3
2021-12-29T01:22:03,42.805,6.029,0.001,-0.007,-0.02,101.0,100.0,100.0,13.3,1505.2,326.3,-0.7,1.8,2470.647,13.28,0.007,171.9
2021-12-29T01:25:03,42.805,6.029,0.003,-0.01,-0.018,100.0,100.0,100.0,13.4,1505.2,326.0,-0.8,1.8,2470.622,13.28,0.01,163.3
2021-12-29T01:28:03,42.805,6.029,0.005,-0.011,-0.046,101.0,100.0,101.0,13.4,1505.2,326.9,-0.8,1.8,2470.617,13.28,0.012,155.6
2021-12-29T01:31:03,42.805,6.029,0.009,-0.022,-0.012,101.0,100.0,100.0,13.4,1505.2,327.6,-0.7,1.8,2470.657,13.28,0.023,157.8
2021-12-29T01:34:03,42.805,6.029,0.018,-0.001,-0.001,100.0,101.0,100.0,13.4,1505.2,328.5,-0.8,1.8,2470.612,13.28,0.018,93.2
2021-12-29T01:37:03,42.805,6.029,0.028,0.003,-0.009,100.0,100.0,100.0,13.4,1505.2,326.4,-0.7,1.8,2470.607,13.28,0.028,83.9
2021-12-29T01:40:03,42.805,6.029,-0.008,-0.018,-0.032,99.0,103.0,100.0,13.3,1505.2,327.9,-0.8,1.8,2470.667,13.28,0.019,204.0
2021-12-29T01:43:03,42.805,6.029,0.028,-0.028,0.0,100.0,101.0,99.0,13.3,1505.2,328.9,-0.8,1.9,2470.612,13.28,0.039,135.0
2021-12-29T01:46:03,42.805,6.029,0.013,-0.011,0.001,101.0,100.0,100.0,13.3,1505.2,330.9,-0.8,1.8,2470.588,13.28,0.017,130.2
2021-12-29T01:49:03,42.805,6.029,0.024,-0.036,-0.036,100.0,99.0,100.0,13.4,1505.2,326.6,-0.7,1.8,2470.604,13.28,0.043,146.3
2021-12-29T01:52:03,42.805,6.029,0.012,-0.001,0.001,99.0,101.0,100.0,13.4,1505.2,327.8,-0.8,1.8,2470.655,13.28,0.012,94.8
2021-12-29T01:55:03,42.805,6.029,0.01,-0.004,-0.005,100.0,101.0,99.0,13.4,1505.2,327.6,-0.8,1.8,2470.593,13.28,0.01,111.8
2021-12-29T01:58:03,42.805,6.029,0.022,-0.013,-0.011,102.0,100.0,100.0,13.3,1505.2,331.8,-0.8,1.8,2470.534,13.28,0.025,120.6
2021-12-29T02:04:03,42.805,6.029,-0.006,-0.003,-0.017,102.0,100.0,100.0,13.4,1505.2,324.9,-0.8,1.8,2470.589,13.28,0.006,243.4
2021-12-29T02:07:03,42.805,6.029,0.014,-0.007,0.01,100.0,100.0,101.0,13.4,1505.2,328.5,-0.8,1.8,2470.525,13.28,0.015,116.6
2021-12-29T02:10:03,42.805,6.029,0.008,0.005,0.004,100.0,102.0,100.0,13.4,1505.2,327.0,-0.8,1.8,2470.699,13.28,0.009,58.0
2021-12-29T02:13:03,42.805,6.029,0.023,-0.014,-0.002,100.0,100.0,100.0,13.4,1505.2,325.2,-0.7,1.9,2471.043,13.28,0.026,121.3
2021-12-29T02:16:03,42.805,6.029,0.029,-0.032,-0.023,101.0,101.0,99.0,13.4,1505.2,331.6,-0.7,1.8,2471.151,13.28,0.043,137.8
2021-12-29T02:19:03,42.805,6.029,0.018,-0.013,-0.015,101.0,101.0,100.0,13.3,1505.2,327.6,-0.8,1.9,2471.045,13.28,0.022,125.8
2021-12-29T02:40:03,42.805,6.029,0.007,-0.021,0.001,101.0,99.0,101.0,13.4,1505.1,325.8,-0.8,1.8,2470.207,13.27,0.022,161.6
2021-12-29T02:43:03,42.805,6.029,0.014,-0.038,-0.057,102.0,99.0,99.0,13.4,1505.1,329.2,-0.8,1.8,2470.206,13.27,0.04,159.8
2021-12-29T02:46:03,42.805,6.029,0.033,-0.024,-0.003,100.0,100.0,101.0,13.4,1505.2,328.8,-0.8,1.8,2470.284,13.28,0.04,126.0
2021-12-29T02:49:03,42.805,6.029,0.024,-0.008,-0.007,101.0,100.0,100.0,13.4,1505.2,325.2,-0.8,1.8,2470.311,13.28,0.025,108.4
2021-12-29T02:52:03,42.805,6.029,0.008,-0.016,0.018,101.0,102.0,100.0,13.4,1505.2,330.2,-0.8,1.8,2470.319,13.28,0.017,153.4
2021-12-29T02:55:03,42.805,6.029,0.004,-0.014,-0.033,101.0,103.0,100.0,13.4,1505.2,327.8,-0.7,1.8,2470.324,13.28,0.014,164.1
2021-12-29T02:58:03,42.805,6.029,0.025,-0.015,-0.003,100.0,102.0,100.0,13.4,1505.2,323.7,-0.7,1.8,2470.328,13.28,0.029,121.0
2021-12-29T03:04:03,42.805,6.029,0.008,-0.012,-0.014,100.0,101.0,100.0,13.3,1505.2,329.3,-0.8,1.8,2470.416,13.28,0.014,146.3
2021-12-29T03:07:03,42.805,6.029,0.025,-0.012,0.032,101.0,102.0,100.0,13.4,1505.2,328.8,-0.7,1.8,2470.464,13.28,0.027,115.6
2021-12-29T03:10:03,42.805,6.029,0.013,-0.036,-0.025,101.0,99.0,100.0,13.4,1505.2,329.8,-0.8,1.8,2470.429,13.28,0.038,160.1
2021-12-29T03:13:03,42.805,6.029,0.028,-0.039,-0.033,100.0,101.0,100.0,13.4,1505.2,329.1,-0.7,1.8,2470.445,13.28,0.048,144.3
2021-12-29T03:16:03,42.805,6.029,0.023,-0.017,0.003,102.0,100.0,100.0,13.4,1505.2,331.6,-0.7,1.8,2470.413,13.28,0.028,126.5
2021-12-29T03:19:03,42.805,6.029,0.005,-0.01,0.004,101.0,101.0,100.0,13.3,1505.2,326.8,-0.8,1.8,2470.43,13.28,0.011,153.4
2021-12-29T03:22:03,42.805,6.029,0.022,-0.022,-0.018,100.0,100.0,101.0,13.4,1505.2,330.9,-0.8,1.9,2470.386,13.28,0.031,135.0
2021-12-29T03:25:03,42.805,6.029,0.032,-0.029,-0.005,100.0,101.0,100.0,13.3,1505.2,329.8,-0.8,1.8,2470.514,13.28,0.043,132.2
2021-12-29T03:28:03,42.805,6.029,0.025,0.008,0.033,100.0,101.0,99.0,13.3,1505.2,328.7,-0.8,1.9,2470.477,13.28,0.026,72.3
2021-12-29T03:31:03,42.805,6.029,0.015,-0.028,-0.05,101.0,100.0,101.0,13.3,1505.2,330.8,-0.7,1.8,2470.414,13.28,0.031,151.8
2021-12-29T03:34:03,42.805,6.029,0.019,-0.024,-0.029,101.0,101.0,100.0,13.3,1505.2,326.1,-0.8,1.8,2470.44,13.28,0.03,141.6
2021-12-29T03:37:03,42.805,6.029,0.011,-0.03,-0.03,101.0,101.0,99.0,13.4,1505.2,329.5,-0.8,1.8,2470.394,13.28,0.031,159.9
2021-12-29T03:40:03,42.805,6.029,0.019,-0.023,-0.003,99.0,100.0,100.0,13.4,1505.2,326.5,-0.8,1.8,2470.384,13.28,0.029,140.4
2021-12-29T03:43:03,42.805,6.029,-0.011,-0.017,-0.025,98.0,102.0,101.0,13.3,1505.2,326.5,-0.8,1.8,2470.401,13.28,0.02,212.9
2021-12-29T03:46:03,42.805,6.029,0.012,-0.03,-0.018,100.0,100.0,100.0,13.4,1505.2,326.8,-0.7,1.8,2470.395,13.28,0.032,158.2
2021-12-29T03:49:03,42.805,6.029,0.011,-0.036,0.001,102.0,100.0,100.0,13.3,1505.2,327.6,-0.8,1.8,2470.319,13.28,0.037,163.0
2021-12-29T03:52:03,42.805,6.029,0.043,-0.033,0.003,100.0,100.0,100.0,13.4,1505.2,326.5,-0.8,1.8,2470.377,13.28,0.054,127.5
2021-12-29T03:55:03,42.805,6.029,0.01,-0.035,-0.042,100.0,100.0,101.0,13.4,1505.2,329.7,-0.7,1.8,2470.35,13.28,0.036,164.1
2021-12-29T03:58:03,42.805,6.029,0.02,-0.003,0.012,102.0,100.0,99.0,13.4,1505.2,328.2,-0.8,1.8,2470.304,13.28,0.02,98.5
2021-12-29T04:04:03,42.805,6.029,0.04,-0.007,0.025,100.0,101.0,100.0,13.4,1505.2,328.3,-0.8,1.8,2470.314,13.28,0.04,99.9
2021-12-29T04:07:03,42.805,6.029,0.044,-0.03,0.012,101.0,100.0,100.0,13.4,1505.2,323.8,-0.8,1.8,2470.331,13.28,0.053,124.3
2021-12-29T04:10:03,42.805,6.029,-0.011,-0.004,-0.007,100.0,99.0,101.0,13.4,1505.2,326.9,-0.8,1.8,2470.3,13.28,0.011,250.0
2021-12-29T04:13:03,42.805,6.029,-0.006,-0.032,-0.027,98.0,103.0,100.0,13.4,1505.2,327.4,-0.8,1.8,2470.325,13.28,0.032,190.6
2021-12-29T04:16:03,42.805,6.029,0.029,-0.015,-0.015,102.0,99.0,99.0,13.4,1505.2,324.3,-0.7,1.8,2470.292,13.28,0.032,117.4
2021-12-29T04:19:03,42.805,6.029,-0.005,-0.036,-0.02,101.0,101.0,99.0,13.4,1505.2,328.3,-0.8,1.8,2470.321,13.28,0.036,187.9
2021-12-29T04:22:03,42.805,6.029,0.032,-0.03,-0.005,101.0,100.0,100.0,13.4,1505.2,329.5,-0.8,1.8,2470.29,13.28,0.043,133.1
2021-12-29T04:25:03,42.805,6.029,0.001,-0.028,-0.033,100.0,99.0,101.0,13.4,1505.2,326.5,-0.7,1.8,2470.294,13.28,0.028,178.0
2021-12-29T04:28:03,42.805,6.029,0.038,-0.019,0.022,102.0,100.0,99.0,13.4,1505.2,327.3,-0.8,1.8,2470.331,13.28,0.042,116.6
2021-12-29T04:31:03,42.805,6.029,0.006,-0.024,-0.006,100.0,99.0,100.0,13.3,1505.2,326.6,-0.8,1.8,2470.382,13.28,0.024,166.0
2021-12-29T04:34:03,42.805,6.029,0.007,-0.018,-0.018,99.0,101.0,100.0,13.3,1505.2,327.7,-0.8,1.8,2470.429,13.28,0.019,158.8
2021-12-29T04:37:03,42.805,6.029,0.0,-0.028,-0.047,100.0,100.0,101.0,13.3,1505.2,327.5,-0.8,1.8,2470.323,13.28,0.028,180.0
2021-12-29T04:40:03,42.805,6.029,0.004,-0.028,-0.041,100.0,100.0,100.0,13.4,1505.2,328.2,-0.8,1.8,2470.327,13.28,0.028,171.9
2021-12-29T04:43:03,42.805,6.029,0.035,-0.015,0.0,100.0,100.0,100.0,13.3,1505.2,329.4,-0.8,1.8,2470.342,13.28,0.038,113.2
2021-12-29T04:46:03,42.805,6.029,0.034,-0.024,-0.022,100.0,100.0,101.0,13.4,1505.2,328.6,-0.7,1.8,2470.342,13.28,0.041,125.2
2021-12-29T04:49:03,42.805,6.029,0.005,-0.027,-0.066,102.0,99.0,99.0,13.4,1505.2,330.1,-0.8,1.8,2470.353,13.28,0.027,169.5
2021-12-29T04:52:03,42.805,6.029,0.018,-0.029,-0.035,100.0,100.0,100.0,13.3,1505.2,328.6,-0.8,1.8,2470.327,13.28,0.034,148.2
2021-12-29T04:55:03,42.805,6.029,0.038,-0.045,-0.005,100.0,100.0,101.0,13.3,1505.2,324.3,-0.8,1.9,2470.24,13.28,0.058,139.8
2021-12-29T04:58:03,42.805,6.029,0.008,-0.024,-0.006,100.0,100.0,100.0,13.3,1505.2,327.3,-0.7,1.8,2470.253,13.28,0.025,161.6
2021-12-29T05:04:03,42.805,6.029,0.043,-0.028,0.0,100.0,100.0,100.0,13.4,1505.2,329.5,-0.8,1.8,2470.35,13.28,0.051,123.1
2021-12-29T05:07:03,42.805,6.029,0.019,-0.026,-0.024,100.0,99.0,99.0,13.4,1505.2,326.9,-0.7,1.8,2470.338,13.28,0.032,143.8
2021-12-29T05:10:03,42.805,6.029,0.026,-0.046,-0.05,101.0,100.0,100.0,13.3,1505.2,328.1,-0.8,1.9,2470.378,13.28,0.052,150.5
2021-12-29T05:13:03,42.805,6.029,0.029,-0.05,-0.053,99.0,99.0,101.0,13.4,1505.2,330.1,-0.7,1.8,2470.435,13.28,0.057,149.9
2021-12-29T05:16:03,42.805,6.029,0.003,-0.029,-0.026,100.0,100.0,100.0,13.4,1505.2,327.6,-0.8,1.8,2470.46,13.28,0.029,174.1
2021-12-29T05:19:03,42.805,6.029,0.001,-0.034,-0.03,99.0,101.0,100.0,13.4,1505.2,329.1,-0.8,1.8,2470.495,13.28,0.034,178.3
2021-12-29T05:22:03,42.805,6.029,0.009,-0.019,-0.024,100.0,100.0,100.0,13.4,1505.2,325.1,-0.8,1.8,2470.506,13.28,0.021,154.7
2021-12-29T05:25:03,42.805,6.029,0.035,-0.035,-0.016,100.0,99.0,100.0,13.3,1505.2,331.3,-0.8,1.8,2470.491,13.28,0.049,135.0
2021-12-29T05:28:03,42.805,6.029,0.014,-0.019,-0.037,100.0,101.0,99.0,13.3,1505.2,327.4,-0.8,1.8,2470.55,13.28,0.023,143.6
2021-12-29T05:31:03,42.805,6.029,0.005,-0.011,-0.036,101.0,101.0,101.0,13.4,1505.2,330.4,-0.8,1.8,2470.523,13.28,0.012,155.6
2021-12-29T05:34:03,42.805,6.029,0.019,-0.038,-0.015,101.0,100.0,100.0,13.3,1505.2,331.9,-0.7,1.9,2470.492,13.28,0.042,153.4
2021-12-29T05:37:03,42.805,6.029,0.023,-0.015,-0.011,98.0,100.0,101.0,13.4,1505.2,329.3,-0.8,1.8,2470.542,13.28,0.027,123.1
2021-12-29T05:40:03,42.805,6.029,0.032,-0.033,-0.001,100.0,101.0,100.0,13.4,1505.2,331.6,-0.8,1.8,2470.539,13.28,0.045,135.9
2021-12-29T05:43:03,42.805,6.029,0.006,-0.022,-0.031,101.0,99.0,100.0,13.4,1505.2,331.3,-0.8,1.8,2470.543,13.28,0.022,164.7
2021-12-29T05:46:03,42.805,6.029,0.03,-0.01,0.003,99.0,100.0,101.0,13.3,1505.2,329.5,-0.7,1.8,2470.522,13.28,0.031,108.4
2021-12-29T05:49:03,42.805,6.029,0.024,-0.024,-0.029,101.0,99.0,100.0,13.4,1505.2,325.4,-0.7,1.8,2470.512,13.28,0.033,135.0
2021-12-29T05:52:03,42.805,6.029,0.011,-0.012,0.008,101.0,100.0,100.0,13.4,1505.2,329.8,-0.8,1.8,2470.486,13.28,0.016,137.5
2021-12-29T05:55:03,42.805,6.029,0.017,-0.032,-0.023,101.0,101.0,99.0,13.4,1505.2,329.5,-0.8,1.8,2470.523,13.28,0.036,152.0
2021-12-29T05:58:03,42.805,6.029,0.038,-0.033,-0.005,100.0,100.0,101.0,13.3,1505.2,328.2,-0.7,1.8,2470.505,13.28,0.05,131.0
2021-12-29T06:04:03,42.805,6.029,0.005,-0.039,-0.039,101.0,100.0,100.0,13.4,1505.2,325.4,-0.7,1.8,2470.447,13.28,0.039,172.7
2021-12-29T06:07:03,42.805,6.029,0.023,-0.04,-0.041,100.0,101.0,100.0,13.4,1505.2,326.7,-0.7,1.9,2470.443,13.28,0.046,150.1
2021-12-29T06:10:03,42.805,6.029,0.029,-0.04,-0.031,100.0,101.0,100.0,13.4,1505.2,323.9,-0.7,1.8,2470.419,13.28,0.049,144.1
2021-12-29T06:13:03,42.805,6.029,0.0,-0.018,-0.04,100.0,101.0,99.0,13.4,1505.2,330.5,-0.8,1.8,2470.4,13.28,0.018,180.0
2021-12-29T06:16:03,42.805,6.029,0.021,-0.018,-0.009,102.0,100.0,99.0,13.4,1505.2,325.8,-0.7,1.8,2470.436,13.28,0.027,130.6
2021-12-29T06:19:03,42.805,6.029,0.025,-0.021,0.0,100.0,101.0,100.0,13.3,1505.2,327.3,-0.8,1.8,2470.426,13.28,0.032,130.0
2021-12-29T06:22:03,42.805,6.029,0.01,-0.01,-0.016,101.0,100.0,100.0,13.4,1505.2,327.6,-0.8,1.8,2470.423,13.28,0.014,135.0
2021-12-29T06:25:03,42.805,6.029,0.025,-0.013,-0.004,100.0,100.0,100.0,13.3,1505.2,328.6,-0.8,1.8,2470.438,13.28,0.028,117.5
2021-12-29T06:28:03,42.805,6.029,0.025,-0.03,-0.032,102.0,99.0,99.0,13.4,1505.2,325.0,-0.7,1.8,2470.4,13.28,0.039,140.2
2021-12-29T06:31:03,42.805,6.029,0.041,-0.042,-0.04,101.0,99.0,100.0,13.3,1505.2,329.8,-0.7,1.8,2470.38,13.28,0.058,135.7
2021-12-29T06:34:03,42.805,6.029,0.034,-0.021,0.004,100.0,101.0,99.0,13.3,1505.2,324.1,-0.8,1.8,2470.412,13.28,0.039,121.7
2021-12-29T06:37:03,42.805,6.029,0.018,-0.044,-0.019,101.0,101.0,100.0,13.3,1505.2,329.0,-0.7,1.8,2470.481,13.28,0.047,157.8
2021-12-29T06:40:03,42.805,6.029,0.021,-0.036,-0.033,100.0,100.0,100.0,13.4,1505.2,328.2,-0.8,1.8,2470.519,13.28,0.041,149.7
2021-12-29T06:43:03,42.805,6.029,0.047,-0.056,-0.01,100.0,101.0,100.0,13.4,1505.2,326.5,-0.7,1.8,2470.477,13.28,0.073,140.0
2021-12-29T06:46:03,42.805,6.029,0.032,-0.014,-0.023,100.0,101.0,101.0,13.4,1505.2,325.3,-0.7,1.8,2470.454,13.28,0.034,113.6
2021-12-29T06:49:03,42.805,6.029,0.017,-0.002,-0.03,101.0,100.0,100.0,13.3,1505.2,330.4,-0.8,1.8,2470.402,13.28,0.017,96.7
2021-12-29T06:52:03,42.805,6.029,0.024,-0.006,-0.015,101.0,100.0,101.0,13.3,1505.2,328.5,-0.8,1.8,2470.42,13.28,0.024,104.0
2021-12-29T06:55:03,42.805,6.029,0.034,-0.043,-0.005,101.0,100.0,100.0,13.4,1505.2,331.6,-0.8,1.8,2470.444,13.28,0.054,141.7
2021-12-29T06:58:03,42.805,6.029,0.011,-0.033,-0.014,101.0,100.0,99.0,13.3,1505.2,326.2,-0.8,1.8,2470.426,13.28,0.034,161.6
2021-12-29T07:04:03,42.805,6.029,0.02,-0.016,0.001,100.0,100.0,100.0,13.4,1505.2,330.8,-0.8,1.8,2470.099,13.28,0.025,128.7
2021-12-29T07:07:03,42.805,6.029,0.02,-0.017,-0.006,101.0,100.0,100.0,13.3,1505.2,326.3,-0.8,1.8,2469.923,13.28,0.026,130.4
2021-12-29T07:10:03,42.805,6.029,0.03,-0.045,-0.047,99.0,100.0,100.0,13.4,1505.2,331.6,-0.8,1.8,2470.004,13.28,0.054,146.3
2021-12-29T07:13:03,42.805,6.029,0.007,-0.025,-0.011,100.0,101.0,100.0,13.4,1505.2,326.2,-0.7,1.8,2470.074,13.28,0.025,164.4
2021-12-29T07:16:03,42.805,6.029,0.041,-0.054,-0.049,102.0,100.0,99.0,13.3,1505.2,331.1,-0.8,1.8,2470.089,13.28,0.067,142.8
2021-12-29T07:19:03,42.805,6.029,0.026,-0.007,0.011,99.0,100.0,100.0,13.4,1505.2,325.1,-0.8,1.8,2470.168,13.28,0.026,105.1
2021-12-29T07:22:03,42.805,6.029,0.018,-0.018,-0.005,100.0,100.0,99.0,13.3,1505.2,326.5,-0.8,1.8,2470.297,13.28,0.025,135.0
2021-12-29T07:25:03,42.805,6.029,0.036,-0.034,-0.009,101.0,100.0,101.0,13.4,1505.2,326.0,-0.8,1.8,2470.34,13.28,0.049,133.4
2021-12-29T07:28:03,42.805,6.029,0.027,-0.025,-0.002,103.0,99.0,101.0,13.4,1505.2,324.8,-0.7,1.8,2470.226,13.28,0.036,132.8
2021-12-29T07:31:03,42.805,6.029,0.038,-0.017,-0.034,102.0,101.0,100.0,13.4,1505.2,325.8,-0.7,1.8,2470.212,13.28,0.041,114.1
2021-12-29T07:34:03,42.805,6.029,0.015,-0.016,-0.02,100.0,100.0,101.0,13.4,1505.2,325.6,-0.8,1.8,2470.232,13.28,0.021,136.9
2021-12-29T07:37:03,42.805,6.029,-0.005,-0.019,-0.001,101.0,101.0,100.0,13.4,1505.2,329.4,-0.8,1.8,2470.276,13.28,0.019,194.7
2021-12-29T07:40:03,42.805,6.029,0.015,-0.025,-0.002,99.0,102.0,101.0,13.4,1505.2,331.2,-0.8,1.8,2470.326,13.28,0.029,149.0
2021-12-29T07:43:03,42.805,6.029,0.029,-0.028,-0.023,100.0,100.0,101.0,13.4,1505.2,329.8,-0.8,1.8,2470.26,13.28,0.04,134.0
2021-12-29T07:46:02,42.805,6.029,0.018,-0.046,-0.053,100.0,99.0,101.0,13.4,1505.2,330.2,-0.8,1.8,2470.261,13.28,0.049,158.6
2021-12-29T07:49:03,42.805,6.029,0.017,-0.024,-0.022,101.0,100.0,100.0,13.4,1505.2,327.4,-0.8,1.8,2470.209,13.28,0.029,144.7
2021-12-29T07:52:03,42.805,6.029,0.033,-0.038,-0.002,101.0,101.0,100.0,13.3,1505.2,329.8,-0.7,1.8,2470.241,13.28,0.05,139.0
2021-12-29T07:55:03,42.805,6.029,0.035,-0.033,-0.025,101.0,99.0,101.0,13.4,1505.2,328.7,-0.7,1.8,2470.188,13.28,0.048,133.3
2021-12-29T07:58:03,42.805,6.029,0.041,-0.028,-0.012,101.0,100.0,100.0,13.3,1505.2,330.9,-0.8,1.8,2470.303,13.28,0.049,124.3
2021-12-29T08:04:02,42.805,6.029,0.047,-0.038,-0.005,99.0,101.0,100.0,13.4,1505.2,331.7,-0.7,1.9,2470.346,13.28,0.06,129.0
2021-12-29T08:07:02,42.805,6.029,0.042,-0.037,-0.004,101.0,103.0,101.0,13.3,1505.2,329.5,-0.8,1.8,2470.374,13.28,0.055,131.4
2021-12-29T08:10:02,42.805,6.029,0.028,-0.012,-0.026,101.0,100.0,101.0,13.4,1505.2,324.1,-0.8,1.8,2470.224,13.28,0.03,113.2
2021-12-29T08:13:02,42.805,6.029,0.031,-0.03,-0.036,101.0,100.0,100.0,13.4,1505.2,327.8,-0.8,1.8,2470.173,13.28,0.043,134.1
2021-12-29T08:16:02,42.805,6.029,0.015,-0.034,-0.017,100.0,100.0,102.0,13.4,1505.2,328.3,-0.7,1.8,2470.105,13.28,0.037,156.2
2021-12-29T08:19:03,42.805,6.029,0.006,-0.017,-0.028,100.0,99.0,100.0,13.4,1505.2,329.5,-0.8,1.8,2469.776,13.28,0.018,160.6
2021-12-29T08:22:02,42.805,6.029,0.022,-0.023,-0.025,100.0,101.0,99.0,13.4,1505.2,330.5,-0.7,1.8,2469.813,13.28,0.031,136.3
2021-12-29T08:25:02,42.805,6.029,0.011,-0.018,-0.025,101.0,98.0,100.0,13.4,1505.2,325.0,-0.7,1.8,2469.841,13.28,0.021,148.6
2021-12-29T08:28:02,42.805,6.029,0.017,-0.025,-0.023,102.0,102.0,100.0,13.3,1505.2,331.4,-0.8,1.8,2469.894,13.28,0.03,145.8
2021-12-29T08:31:02,42.805,6.029,0.028,-0.061,-0.061,100.0,100.0,100.0,13.3,1505.2,326.9,-0.7,1.8,2469.947,13.28,0.067,155.3
2021-12-29T08:34:02,42.805,6.029,0.043,-0.052,-0.053,100.0,100.0,100.0,13.4,1505.2,325.9,-0.8,1.8,2469.839,13.28,0.067,140.4
2021-12-29T08:37:02,42.805,6.029,0.0,-0.004,-0.025,101.0,100.0,100.0,13.4,1505.2,327.5,-0.8,1.8,2469.916,13.28,0.004,180.0
2021-12-29T08:40:02,42.805,6.029,0.016,-0.015,-0.035,100.0,99.0,100.0,13.4,1505.2,330.7,-0.7,1.8,2469.956,13.28,0.021,133.1
2021-12-29T08:43:03,42.805,6.029,0.014,-0.03,-0.028,100.0,100.0,99.0,13.4,1505.2,325.4,-0.8,1.8,2470.023,13.28,0.033,155.0
2021-12-29T08:46:02,42.805,6.029,0.039,-0.028,-0.015,101.0,100.0,101.0,13.3,1505.2,327.8,-0.8,1.8,2470.045,13.28,0.048,125.7
2021-12-29T08:49:02,42.805,6.029,0.022,-0.047,-0.018,100.0,101.0,100.0,13.4,1505.2,326.2,-0.7,1.8,2470.106,13.28,0.051,154.9
2021-12-29T08:52:02,42.805,6.029,0.026,-0.05,-0.052,100.0,101.0,100.0,13.3,1505.2,325.0,-0.8,1.8,2470.203,13.28,0.056,152.5
2021-12-29T08:55:02,42.805,6.029,0.03,-0.037,-0.068,101.0,100.0,100.0,13.4,1505.2,326.9,-0.8,1.8,2470.191,13.28,0.047,141.0
2021-12-29T08:58:03,42.805,6.029,0.025,-0.038,-0.057,99.0,102.0,100.0,13.4,1505.2,330.2,-0.8,1.8,2470.166,13.28,0.045,146.7
2021-12-29T09:04:02,42.805,6.029,0.025,-0.034,-0.036,101.0,100.0,100.0,13.4,1505.2,324.9,-0.7,1.8,2470.067,13.28,0.042,143.7
2021-12-29T09:07:02,42.805,6.029,0.016,-0.023,-0.03,101.0,100.0,100.0,13.4,1505.2,330.1,-0.7,1.8,2470.071,13.28,0.028,145.2
2021-12-29T09:10:03,42.805,6.029,0.007,-0.042,-0.054,99.0,101.0,100.0,13.3,1505.2,329.0,-0.8,1.8,2469.972,13.28,0.042,170.5
2021-12-29T09:13:02,42.805,6.029,0.036,-0.021,-0.049,100.0,101.0,100.0,13.4,1505.2,328.8,-0.8,1.8,2469.929,13.28,0.041,120.3
2021-12-29T09:16:02,42.805,6.029,0.04,-0.026,-0.021,100.0,100.0,100.0,13.4,1505.2,331.8,-0.8,1.8,2469.991,13.28,0.047,123.0
2021-12-29T09:19:02,42.805,6.029,0.027,-0.046,-0.034,100.0,101.0,99.0,13.4,1505.2,325.3,-0.7,1.8,2470.066,13.28,0.053,149.6
2021-12-29T09:22:02,42.805,6.029,0.029,-0.026,-0.007,100.0,101.0,100.0,13.3,1505.2,327.7,-0.8,1.8,2470.122,13.28,0.038,131.9
2021-12-29T09:25:02,42.805,6.029,0.042,-0.04,-0.05,101.0,100.0,99.0,13.3,1505.2,328.4,-0.8,1.8,2470.149,13.28,0.057,133.6
2021-12-29T09:28:02,42.805,6.029,0.01,-0.021,-0.007,101.0,101.0,99.0,13.4,1505.2,325.3,-0.8,1.8,2470.129,13.28,0.023,154.5
2021-12-29T09:31:03,42.805,6.029,0.018,-0.022,-0.031,100.0,101.0,100.0,13.4,1505.2,328.9,-0.8,1.8,2470.096,13.28,0.028,140.7
2021-12-29T09:34:03,42.805,6.029,0.012,-0.042,-0.024,101.0,100.0,99.0,13.4,1505.2,331.0,-0.7,1.8,2470.101,13.28,0.043,164.1
2021-12-29T09:37:02,42.805,6.029,0.024,-0.055,-0.041,101.0,100.0,100.0,13.4,1505.2,327.8,-0.8,1.8,2470.001,13.28,0.06,156.4
2021-12-29T09:40:02,42.805,6.029,0.014,0.002,0.011,98.0,102.0,101.0,13.4,1505.2,324.5,-0.8,1.8,2469.91,13.28,0.014,81.9
2021-12-29T09:43:03,42.805,6.029,0.01,-0.044,-0.042,100.0,102.0,100.0,13.4,1505.2,328.6,-0.8,1.8,2469.761,13.28,0.045,167.2
2021-12-29T09:46:03,42.805,6.029,0.013,-0.028,-0.015,101.0,100.0,100.0,13.4,1505.2,331.3,-0.8,1.8,2469.778,13.28,0.03,155.1
2021-12-29T09:49:03,42.805,6.029,0.027,-0.034,-0.012,99.0,100.0,100.0,13.3,1505.2,327.6,-0.8,1.8,2469.858,13.28,0.043,141.5
2021-12-29T09:52:02,42.805,6.029,0.017,-0.025,-0.027,103.0,100.0,100.0,13.4,1505.2,327.2,-0.7,1.8,2469.839,13.28,0.03,145.8
2021-12-29T09:55:03,42.805,6.029,0.02,-0.024,-0.033,100.0,99.0,100.0,13.3,1505.2,330.6,-0.7,1.8,2469.834,13.28,0.031,140.2
2021-12-29T09:58:03,42.805,6.029,0.013,-0.038,-0.04,99.0,100.0,100.0,13.4,1505.2,326.9,-0.7,1.8,2469.816,13.28,0.04,161.1
2021-12-29T10:04:02,42.805,6.029,0.031,-0.011,0.001,101.0,101.0,100.0,13.4,1505.2,325.6,-0.7,1.8,2469.669,13.28,0.032,109.5
2021-12-29T10:07:02,42.805,6.029,0.011,-0.019,-0.008,101.0,101.0,99.0,13.4,1505.2,331.1,-0.7,1.8,2469.722,13.28,0.021,149.9
2021-12-29T10:10:03,42.805,6.029,0.024,-0.013,-0.019,100.0,99.0,100.0,13.3,1505.2,323.7,-0.8,1.8,2469.737,13.28,0.027,118.4
2021-12-29T10:13:03,42.805,6.029,0.022,-0.048,-0.044,100.0,99.0,100.0,13.4,1505.2,329.7,-0.7,1.8,2469.714,13.28,0.052,155.4
2021-12-29T10:16:03,42.805,6.029,0.012,-0.059,-0.056,99.0,102.0,99.0,13.3,1505.2,331.1,-0.8,1.8,2469.831,13.28,0.06,168.5
2021-12-29T10:19:03,42.805,6.029,0.029,-0.035,-0.017,100.0,100.0,100.0,13.4,1505.2,325.6,-0.7,1.8,2469.918,13.28,0.045,140.4